Voltar ao catálogo

STARLINK-31076

AtivoComunicaçõesVLEO
NORAD 58736·PAYLOAD·🇺🇸 United States

Lançado Jan 7, 2024 de Cape Canaveral Space Force Station

Loading…

Próximas Passagens (próximas 24 horas)

TLE

AtualizadoSource: CelesTrak SupGP

Época: Sep 15, 2026, 02:34 UTC

1 58736C 24005J   26258.10743056 -.00036629  00000+0 -13268-2 0  2586
2 58736  43.0012 229.8232 0001138 267.6361 138.9470 15.27594253    19

Acompanhe STARLINK-31076 em tempo real com AllMySat

Download on the App Store